Weather in Mezhdurechensk

Russia / Komi Republic     63°13′20″N   48°33′58″E
temp.,
°C
wind,
m/s
gust,
m/s
humid.,
%
clouds,
%
prec.,
mm/h
press.,
hPa
HPBL,
m
5 march, fri
fri500:00−21nnw2210075 0.0 99425
03:00−22nw229983 0.1 99635
06:00−21nnw239997 0.0 99687
09:00−19nnw139696 0.1 998174
12:00−15nw2492100 0.0 999414
15:00−13nnw3589100 0.1 1001655
18:00−15nw2696100 0.1 1002258
21:00−17nnw2696100 0.2 1004360
6 march, sat
sat600:00−20nw259994 0.1 1005145
03:00−21nw259994 0.1 1007123
06:00−23nw229985 0.0 100753
09:00−21nw249688 0.1 1008244
12:00−18wnw238897 0.0 1008581
15:00−17w248799 0.1 1007687
18:00−20wsw1298100 0.0 100720
21:00−22ssw1210098 0.1 100720
7 march, sun
sun700:00−22ssw2210098 0.1 100624
03:00−23s229993 0.1 100620
06:00−23sse239832 0.0 100527
09:00−19se249422 0.0 1004183
12:00−14se24898 0.0 1004334
15:00−12ese358826 0.0 1004464
18:00−17e399693 0.0 1004219
21:00−19e379893 0.0 1005172
8 march, mon
mon800:00−21e379799 0.0 1005162
03:00−22e4896100 0.0 1005237
06:00−23ene489797 0.0 1006240
09:00−22ene379598 0.0 1006267
12:00−18ne369098 0.0 1006403
15:00−17ne478899 0.0 1006574
18:00−21ne3897100 0.0 1008191
21:00−23ne389797 0.0 1009200
9 march, tue
tue900:00−27ne369815 0.0 1010130
03:00−29ne26988 0.0 1011126
06:00−31nne25980 0.0 101394
09:00−27nne25940 0.0 1013251
12:00−23n249164 0.0 1014406
15:00−21n359082 0.0 1014504
18:00−26n239782 0.0 101651
21:00−29nne229741 0.0 101819